EA1HLH-13 Weather Reports


time (UTC)temp
C
wind
direction
speed
KPH
gust
KPH
rain 1hr
cm
rain 24hr
cm
rain mn
cm
humidity
%
barometer
mb
20260507115331 14 326 8.0 9.7 0.00 0.00 0.00 84 1010.2
20260507114831 14 347 4.8 8.0 0.00 0.00 0.00 84 1010.4
20260507114330 14 5 8.0 12.9 0.00 0.00 0.00 85 1010.4
20260507113830 14 333 8.0 12.9 0.00 0.00 0.00 85 1010.4
20260507113331 14 293 8.0 19.3 0.00 0.00 0.00 86 1010.4
20260507112831 14 311 8.0 11.3 0.00 0.00 0.00 86 1010.3
20260507112331 14 296 12.9 19.3 0.00 0.00 0.00 85 1010.2
20260507111833 14 295 11.3 16.1 0.00 0.00 0.00 85 1010.2
20260507111331 15 291 11.3 19.3 0.00 0.00 0.00 84 1010.1
20260507110831 15 296 8.0 14.5 0.00 0.00 0.00 83 1010.2
20260507110331 15 345 8.0 14.5 0.00 0.00 0.00 82 1010.2
20260507105831 15 331 8.0 9.7 0.00 0.00 0.00 82 1010.2
20260507105331 15 346 8.0 14.5 0.00 0.00 0.00 83 1010.2
20260507104831 15 16 8.0 12.9 0.00 0.00 0.00 83 1010.1
20260507104331 15 21 9.7 9.7 0.00 0.00 0.00 83 1010.1
20260507103831 15 28 4.8 8.0 0.00 0.00 0.00 83 1010.1
20260507103331 15 22 9.7 12.9 0.00 0.00 0.00 83 1010.1
20260507102831 15 34 1.6 9.7 0.00 0.00 0.00 84 1010.0
20260507102331 15 34 4.8 11.3 0.00 0.00 0.00 84 1010.0
20260507101831 15 31 1.6 9.7 0.00 0.00 0.00 82 1009.9
20260507101332 15 33 4.8 8.0 0.00 0.00 0.00 84 1009.9
20260507100832 14 33 8.0 9.7 0.00 0.00 0.00 84 1010.0
20260507100332 14 1 8.0 11.3 0.00 0.00 0.00 85 1010.0
20260507095831 14 336 8.0 8.0 0.00 0.00 0.00 85 1010.0
20260507095331 14 6 8.0 14.5 0.00 0.00 0.00 85 1010.0
20260507094831 14 352 8.0 9.7 0.00 0.00 0.00 85 1009.9
20260507094331 14 338 9.7 12.9 0.00 0.00 0.00 84 1009.9
20260507093831 14 337 8.0 9.7 0.00 0.00 0.00 84 1009.9
20260507093331 14 354 9.7 11.3 0.00 0.00 0.00 84 1009.9
20260507092831 14 317 8.0 11.3 0.00 0.00 0.00 83 1009.9
20260507092331 14 334 1.6 9.7 0.00 0.00 0.00 83 1009.8
20260507091830 15 27 4.8 11.3 0.00 0.00 0.00 85 1009.9
20260507091330 14 357 4.8 4.8 0.00 0.00 0.00 85 1010.0
20260507090831 14 5 8.0 9.7 0.00 0.00 0.00 85 1009.9
20260507090330 13 8 1.6 9.7 0.00 0.00 0.00 85 1009.9
20260507085832 13 81 8.0 9.7 0.00 0.00 0.00 86 1010.0
20260507085331 13 26 4.8 4.8 0.00 0.00 0.00 85 1010.0
20260507084830 13 51 3.2 9.7 0.00 0.00 0.00 86 1010.1
20260507084331 13 242 1.6 1.6 0.00 0.00 0.00 88 1010.1
20260507083831 13 31 3.2 4.8 0.00 0.00 0.00 87 1010.1
20260507083330 13 49 9.7 12.9 0.00 0.00 0.00 88 1010.1
20260507082831 13 10 4.8 9.7 0.00 0.00 0.00 90 1010.0
20260507082330 12 42 4.8 8.0 0.00 0.00 0.00 93 1010.1
20260507081832 12 8 3.2 4.8 0.00 0.00 0.00 95 1010.0
20260507081331 12 13 3.2 4.8 0.00 0.00 0.00 96 1010.0
20260507080830 12 69 4.8 9.7 0.00 0.00 0.00 96 1010.1
20260507080331 12 21 1.6 3.2 0.00 0.00 0.00 97 1010.2
20260507075831 12 9 1.6 9.7 0.00 0.00 0.00 98 1010.3
20260507075330 12 24 1.6 4.8 0.00 0.00 0.00 98 1010.3
20260507074831 12 96 1.6 3.2 0.00 0.00 0.00 99 1010.3
20260507074331 12 90 1.6 3.2 0.00 0.00 0.00 99 1010.3
20260507073830 11 142 0.0 0.0 0.00 0.00 0.00 99 1010.3
20260507073331 11 25 3.2 4.8 0.00 0.00 0.00 99 1010.4
20260507072830 11 124 0.0 1.6 0.00 0.00 0.00 99 1010.4
20260507072332 10 143 0.0 0.0 0.00 0.00 0.00 99 1010.4
20260507071832 10 141 0.0 1.6 0.00 0.00 0.00 99 1010.3
20260507071332 9 221 0.0 0.0 0.00 0.00 0.00 99 1010.3
20260507070831 8 247 0.0 0.0 0.00 0.00 0.00 99 1010.3
20260507070331 8 247 0.0 0.0 0.00 0.00 0.00 99 1010.3
20260507065830 7 247 0.0 1.6 0.00 0.03 0.00 98 1010.3
20260507065330 7 247 0.0 0.0 0.00 0.03 0.00 99 1010.5
20260507064830 7 247 0.0 0.0 0.00 0.03 0.00 99 1010.5
20260507064330 7 247 0.0 0.0 0.00 0.03 0.00 99 1010.5
20260507063830 7 247 0.0 0.0 0.00 0.03 0.00 99 1010.6
20260507063331 7 247 0.0 0.0 0.00 0.03 0.00 99 1010.6
20260507062830 6 245 0.0 0.0 0.00 0.03 0.00 99 1010.6
20260507062330 6 245 0.0 1.6 0.00 0.03 0.00 99 1010.5
20260507061830 6 117 0.0 0.0 0.00 0.03 0.00 98 1010.6
20260507061330 6 117 0.0 0.0 0.00 0.05 0.00 98 1010.6
20260507060830 6 117 0.0 0.0 0.00 0.05 0.00 98 1010.6
20260507060330 6 117 0.0 0.0 0.00 0.05 0.00 98 1010.6
20260507055830 6 117 0.0 0.0 0.00 0.05 0.00 98 1010.6
20260507055330 6 117 0.0 0.0 0.00 0.08 0.00 98 1010.6
20260507054830 6 117 0.0 0.0 0.00 0.08 0.00 98 1010.7
20260507054330 6 117 0.0 0.0 0.00 0.10 0.00 98 1010.6
20260507053830 6 117 0.0 0.0 0.00 0.15 0.00 98 1010.6
20260507053330 6 117 0.0 0.0 0.00 0.18 0.00 98 1010.6
20260507052830 6 117 0.0 0.0 0.00 0.20 0.00 98 1010.6
20260507052331 6 117 0.0 0.0 0.00 0.20 0.00 98 1010.6
20260507051830 6 117 0.0 0.0 0.00 0.20 0.00 98 1010.6
20260507051330 6 117 0.0 0.0 0.00 0.20 0.00 98 1010.6
20260507050830 6 117 0.0 0.0 0.00 0.20 0.00 98 1010.6
20260507050330 6 117 0.0 0.0 0.00 0.20 0.00 98 1010.6
20260507045830 6 117 0.0 0.0 0.00 0.20 0.00 98 1010.8
20260507045330 6 117 0.0 0.0 0.00 0.20 0.00 98 1010.8
20260507044830 6 117 0.0 0.0 0.00 0.20 0.00 98 1010.8
20260507044330 6 117 0.0 0.0 0.00 0.20 0.00 98 1010.8
20260507043830 6 117 0.0 0.0 0.00 0.20 0.00 98 1011.0
20260507043330 7 91 0.0 0.0 0.00 0.20 0.00 98 1010.9
20260507042830 7 91 0.0 1.6 0.00 0.20 0.00 98 1011.0
20260507042330 7 90 0.0 0.0 0.00 0.20 0.00 98 1011.0
20260507041830 6 90 0.0 1.6 0.00 0.20 0.00 98 1011.1
20260507041330 6 96 0.0 0.0 0.00 0.20 0.00 98 1011.1
20260507040830 6 96 0.0 0.0 0.00 0.20 0.00 98 1011.2
20260507040330 6 96 0.0 0.0 0.00 0.20 0.00 98 1011.2
20260507035830 6 96 0.0 0.0 0.00 0.20 0.00 98 1011.2
20260507035331 6 96 0.0 0.0 0.00 0.20 0.00 98 1011.3
20260507034831 6 96 0.0 0.0 0.00 0.20 0.00 98 1011.3
20260507034331 6 96 0.0 0.0 0.00 0.23 0.00 98 1011.4
20260507033831 6 96 0.0 0.0 0.00 0.23 0.00 98 1011.3
20260507033331 6 96 0.0 0.0 0.00 0.23 0.00 98 1011.3
20260507032831 6 96 0.0 0.0 0.00 0.23 0.00 98 1011.3
20260507032331 6 96 0.0 0.0 0.00 0.23 0.00 97 1011.4
20260507031831 6 96 0.0 0.0 0.00 0.23 0.00 97 1011.4
20260507031331 6 96 0.0 0.0 0.00 0.23 0.00 97 1011.4
20260507030831 6 96 0.0 0.0 0.00 0.23 0.00 97 1011.3
20260507030331 6 96 0.0 0.0 0.00 0.23 0.00 97 1011.4
20260507025831 6 96 0.0 0.0 0.00 0.23 0.00 97 1011.3
20260507025331 6 96 0.0 0.0 0.00 0.23 0.00 97 1011.3
20260507024831 6 96 0.0 0.0 0.00 0.23 0.00 97 1011.4
20260507024331 6 96 0.0 0.0 0.00 0.23 0.00 97 1011.4
20260507023831 6 96 0.0 0.0 0.00 0.23 0.00 97 1011.5
20260507023331 6 96 0.0 0.0 0.00 0.23 0.00 97 1011.4
20260507022831 6 96 0.0 0.0 0.00 0.23 0.00 97 1011.5
20260507022331 6 96 0.0 0.0 0.00 0.23 0.00 97 1011.5
20260507021831 6 96 0.0 0.0 0.00 0.23 0.00 97 1011.6
20260507021332 7 96 0.0 0.0 0.00 0.23 0.00 97 1011.6
20260507020832 7 96 0.0 0.0 0.00 0.23 0.00 96 1011.7
20260507020332 7 96 0.0 0.0 0.00 0.23 0.00 96 1011.6
20260507015831 7 96 0.0 0.0 0.00 0.23 0.00 96 1011.6
20260507015331 7 96 0.0 0.0 0.00 0.23 0.00 97 1011.6
20260507014831 7 96 0.0 0.0 0.00 0.23 0.00 96 1011.6
20260507014331 7 96 0.0 0.0 0.00 0.23 0.00 96 1011.7
20260507013832 7 96 0.0 0.0 0.00 0.23 0.00 96 1011.7
20260507013331 7 96 0.0 0.0 0.00 0.23 0.00 96 1011.8
20260507012831 7 96 0.0 0.0 0.00 0.23 0.00 96 1011.9
20260507012331 7 96 0.0 0.0 0.00 0.23 0.00 96 1011.8
20260507011831 7 96 0.0 0.0 0.00 0.23 0.00 96 1011.9
20260507011331 8 96 0.0 0.0 0.00 0.23 0.00 96 1012.0
20260507010831 8 96 0.0 0.0 0.00 0.23 0.00 96 1012.0
20260507010331 8 96 0.0 0.0 0.00 0.23 0.00 96 1012.0
20260507005831 8 96 0.0 0.0 0.00 0.23 0.00 96 1012.1
20260507005332 8 96 0.0 0.0 0.00 0.23 0.00 96 1012.1
20260507004831 8 96 0.0 0.0 0.00 0.23 0.00 96 1012.2
20260507004331 8 96 0.0 0.0 0.00 0.23 0.00 96 1012.1
20260507003830 8 96 0.0 0.0 0.00 0.23 0.00 95 1012.1
20260507003331 8 96 0.0 1.6 0.00 0.23 0.00 95 1012.2
20260507002831 8 96 0.0 0.0 0.00 0.23 0.00 95 1012.3
20260507002331 9 96 0.0 0.0 0.00 0.23 0.00 95 1012.2
20260507001719 9 96 0.0 0.0 0.00 0.23 0.00 95 1012.2
20260507001219 9 96 0.0 0.0 0.00 0.23 0.00 95 1012.3
20260507000719 9 96 0.0 0.0 0.00 0.23 0.00 94 1012.3
20260507000219 10 96 0.0 0.0 0.00 0.23 0.00 94 1012.4
20260506235719 10 96 0.0 0.0 0.00 0.23 0.00 94 1012.4
20260506235219 10 354 0.0 0.0 0.00 0.23 0.00 94 1012.4
20260506234719 10 354 0.0 0.0 0.00 0.23 0.00 94 1012.5
20260506234219 10 354 0.0 0.0 0.00 0.23 0.00 94 1012.4
20260506233719 10 354 0.0 1.6 0.00 0.23 0.00 94 1012.6
20260506233219 10 354 0.0 0.0 0.00 0.23 0.00 94 1012.6
20260506232719 10 354 0.0 0.0 0.00 0.23 0.00 94 1012.6
20260506232219 11 354 0.0 0.0 0.00 0.23 0.00 94 1012.7
20260506231719 11 354 0.0 0.0 0.00 0.23 0.00 94 1012.8
20260506231219 11 354 0.0 0.0 0.00 0.23 0.00 94 1012.7
20260506230719 11 354 0.0 1.6 0.00 0.23 0.00 94 1012.8
20260506230219 11 31 0.0 1.6 0.00 0.23 0.00 94 1012.8
20260506225720 11 347 0.0 3.2 0.00 0.23 0.00 94 1012.7
20260506225219 11 37 0.0 1.6 0.00 0.23 0.00 93 1012.7
20260506224720 11 81 0.0 1.6 0.00 0.23 0.00 93 1012.8
20260506224220 11 38 0.0 1.6 0.00 0.23 0.00 93 1012.9
20260506223720 11 64 1.6 3.2 0.00 0.23 0.00 93 1012.8
20260506223220 11 51 1.6 3.2 0.00 0.23 0.00 93 1012.9
20260506222720 11 51 0.0 1.6 0.00 0.23 0.00 93 1012.9
20260506222220 11 73 1.6 3.2 0.00 0.23 0.00 93 1012.9
20260506221720 11 10 0.0 1.6 0.00 0.23 0.00 92 1013.0
20260506221220 11 23 1.6 3.2 0.00 0.23 0.00 92 1013.1
20260506220720 11 71 0.0 0.0 0.00 0.23 0.00 92 1013.3
20260506220220 11 79 1.6 4.8 0.00 0.23 0.00 92 1013.3
20260506215720 11 53 0.0 3.2 0.00 0.23 0.23 91 1013.3
20260506215220 12 90 0.0 1.6 0.00 0.23 0.23 91 1013.4
20260506214720 12 73 1.6 3.2 0.00 0.23 0.23 91 1013.4
20260506214220 12 80 1.6 3.2 0.00 0.23 0.23 91 1013.4
20260506213720 12 37 3.2 11.3 0.00 0.23 0.23 91 1013.4
20260506213220 12 68 0.0 3.2 0.00 0.23 0.23 91 1013.4
20260506212720 12 59 1.6 4.8 0.00 0.23 0.23 91 1013.4
20260506212221 12 43 1.6 4.8 0.00 0.23 0.23 91 1013.4
20260506211720 12 75 0.0 0.0 0.00 0.23 0.23 91 1013.4
20260506211220 12 354 0.0 1.6 0.00 0.23 0.23 91 1013.3
20260506210720 12 32 3.2 4.8 0.00 0.23 0.23 91 1013.4
20260506210220 12 12 1.6 3.2 0.00 0.23 0.23 91 1013.4
20260506205720 12 60 1.6 3.2 0.00 0.23 0.23 90 1013.4
20260506205220 12 30 0.0 1.6 0.00 0.23 0.23 90 1013.4
20260506204720 12 326 0.0 1.6 0.00 0.23 0.23 90 1013.4
20260506204220 12 356 0.0 1.6 0.00 0.23 0.23 90 1013.3
20260506203720 12 8 0.0 3.2 0.00 0.23 0.23 90 1013.3
20260506203220 12 332 0.0 3.2 0.00 0.23 0.23 89 1013.3
20260506202720 12 352 0.0 3.2 0.00 0.23 0.23 89 1013.3
20260506202220 12 329 3.2 4.8 0.00 0.23 0.23 90 1013.3
20260506201720 12 311 1.6 3.2 0.00 0.23 0.23 90 1013.3
20260506201220 12 351 1.6 4.8 0.00 0.23 0.23 90 1013.3
20260506200720 12 349 3.2 4.8 0.00 0.23 0.23 90 1013.2
20260506200220 12 352 1.6 4.8 0.00 0.23 0.23 90 1013.3
20260506195719 12 346 0.0 1.6 0.00 0.23 0.23 91 1013.2
20260506195220 12 351 3.2 4.8 0.00 0.23 0.23 91 1013.2
20260506194720 12 1 3.2 9.7 0.00 0.23 0.23 91 1013.2
20260506194219 12 355 1.6 1.6 0.00 0.23 0.23 91 1013.3
20260506193719 12 7 0.0 1.6 0.00 0.23 0.23 91 1013.3
20260506193219 12 16 1.6 4.8 0.00 0.23 0.23 91 1013.4
20260506192719 12 357 0.0 1.6 0.00 0.23 0.23 91 1013.3
20260506192219 12 353 3.2 3.2 0.00 0.23 0.23 91 1013.4
20260506191719 12 50 1.6 4.8 0.00 0.23 0.23 91 1013.3
20260506191219 12 14 0.0 1.6 0.00 0.23 0.23 91 1013.3
20260506190719 12 356 1.6 1.6 0.00 0.23 0.23 91 1013.3
20260506190220 12 357 0.0 1.6 0.00 0.23 0.23 91 1013.3
20260506185719 12 12 3.2 8.0 0.00 0.23 0.23 91 1013.3
20260506185219 12 28 1.6 4.8 0.00 0.23 0.23 91 1013.3
20260506184719 12 1 1.6 8.0 0.00 0.23 0.23 90 1013.3
20260506184219 12 30 3.2 4.8 0.00 0.23 0.23 90 1013.3
20260506183719 12 24 4.8 9.7 0.00 0.23 0.23 90 1013.3
20260506183219 12 30 1.6 3.2 0.00 0.23 0.23 90 1013.4
20260506182719 12 345 4.8 9.7 0.00 0.23 0.23 89 1013.4
20260506182219 12 20 3.2 8.0 0.00 0.23 0.23 89 1013.4
20260506181719 12 9 8.0 9.7 0.00 0.23 0.23 89 1013.4
20260506181220 13 303 3.2 11.3 0.00 0.23 0.23 90 1013.4
20260506180720 12 353 4.8 9.7 0.00 0.23 0.23 90 1013.4
20260506180220 12 357 3.2 8.0 0.00 0.23 0.23 90 1013.4
20260506175720 12 358 3.2 4.8 0.00 0.23 0.23 90 1013.4
20260506175220 12 8 4.8 9.7 0.00 0.23 0.23 90 1013.5
20260506174720 12 33 4.8 9.7 0.00 0.23 0.23 90 1013.5
20260506174220 12 341 3.2 4.8 0.00 0.23 0.23 89 1013.4
20260506173720 12 26 4.8 8.0 0.00 0.23 0.23 89 1013.6
20260506173220 13 7 8.0 12.9 0.00 0.23 0.23 89 1013.7
20260506172720 12 5 4.8 8.0 0.00 0.23 0.23 88 1013.8
20260506172220 13 25 1.6 9.7 0.00 0.23 0.23 88 1013.7
20260506171720 13 28 8.0 12.9 0.00 0.23 0.23 88 1013.7
20260506171220 13 20 3.2 4.8 0.00 0.23 0.23 89 1013.7
20260506170720 13 319 4.8 9.7 0.00 0.23 0.23 89 1013.7
20260506170220 13 13 4.8 11.3 0.00 0.23 0.23 88 1013.7
20260506165720 13 32 4.8 14.5 0.00 0.23 0.23 88 1013.6
20260506165220 13 10 8.0 11.3 0.00 0.23 0.23 86 1013.8
20260506164720 13 29 8.0 12.9 0.00 0.23 0.23 86 1013.7
20260506164221 13 10 4.8 11.3 0.00 0.23 0.23 84 1013.7
20260506163721 13 20 4.8 9.7 0.00 0.23 0.23 84 1013.7
20260506163221 13 12 4.8 9.7 0.00 0.23 0.23 83 1013.7
20260506162721 13 13 8.0 16.1 0.00 0.23 0.23 83 1013.8
20260506162221 13 11 9.7 12.9 0.00 0.23 0.23 83 1013.7
20260506161721 13 340 8.0 16.1 0.00 0.23 0.23 84 1013.8
20260506161221 13 28 3.2 9.7 0.00 0.23 0.23 84 1013.8
20260506160721 14 355 3.2 9.7 0.00 0.23 0.23 84 1013.9
20260506160221 14 339 8.0 9.7 0.00 0.23 0.23 83 1013.8
20260506155721 14 7 8.0 11.3 0.00 0.23 0.23 82 1013.9
20260506155221 14 354 9.7 14.5 0.00 0.23 0.23 81 1013.9
20260506154721 14 332 9.7 14.5 0.00 0.23 0.23 80 1013.9
20260506154221 14 342 9.7 12.9 0.00 0.23 0.23 79 1014.0
20260506153721 14 5 8.0 11.3 0.00 0.23 0.23 81 1013.9
20260506153219 14 349 4.8 14.5 0.00 0.23 0.23 81 1013.9
20260506152719 14 352 8.0 16.1 0.00 0.23 0.23 81 1014.0
20260506152219 14 307 8.0 12.9 0.00 0.23 0.23 82 1013.9
20260506151719 14 328 3.2 4.8 0.00 0.23 0.23 81 1014.0
20260506151219 14 334 4.8 11.3 0.00 0.23 0.23 80 1014.0
20260506150719 14 12 4.8 4.8 0.00 0.23 0.23 80 1014.1
20260506150219 14 343 4.8 12.9 0.00 0.23 0.23 81 1014.1
20260506145719 14 11 4.8 9.7 0.00 0.23 0.23 79 1014.3
20260506145219 15 301 4.8 8.0 0.00 0.23 0.23 78 1014.3
20260506144719 15 297 3.2 8.0 0.00 0.23 0.23 81 1014.3
20260506144219 15 26 9.7 11.3 0.00 0.23 0.23 77 1014.3
20260506143719 15 307 4.8 8.0 0.00 0.23 0.23 78 1014.4
20260506143219 15 336 3.2 9.7 0.00 0.23 0.23 77 1014.5
20260506142719 15 41 8.0 12.9 0.00 0.23 0.23 79 1014.5
20260506142219 15 20 9.7 14.5 0.00 0.23 0.23 78 1014.5
20260506141719 15 32 8.0 12.9 0.00 0.23 0.23 79 1014.5
20260506141219 15 314 4.8 12.9 0.00 0.23 0.23 77 1014.4
20260506140719 15 56 4.8 8.0 0.00 0.23 0.23 79 1014.5
20260506140219 14 350 4.8 11.3 0.00 0.23 0.23 79 1014.6
20260506135719 15 347 4.8 12.9 0.00 0.23 0.23 80 1014.5
20260506135219 14 2 4.8 9.7 0.00 0.23 0.23 80 1014.6
20260506134719 14 294 4.8 9.7 0.00 0.23 0.23 80 1014.7
20260506134219 14 359 4.8 8.0 0.00 0.23 0.23 79 1014.6
20260506133718 14 342 9.7 16.1 0.00 0.23 0.23 80 1014.6
20260506133219 14 306 3.2 9.7 0.00 0.23 0.23 80 1014.7
20260506132719 14 339 9.7 9.7 0.00 0.23 0.23 76 1014.6
20260506132219 15 314 3.2 4.8 0.00 0.23 0.23 77 1014.7
20260506131719 15 9 3.2 8.0 0.00 0.23 0.23 77 1014.7
20260506131219 15 5 8.0 12.9 0.00 0.23 0.23 79 1014.7
20260506130719 15 331 4.8 11.3 0.00 0.23 0.23 77 1014.8
20260506130219 15 298 4.8 8.0 0.00 0.23 0.23 78 1014.7
20260506125719 15 42 8.0 9.7 0.00 0.23 0.23 78 1014.9
20260506125219 14 279 4.8 9.7 0.00 0.23 0.23 76 1014.8
20260506124719 15 20 8.0 12.9 0.00 0.23 0.23 78 1014.9
20260506124219 14 338 3.2 8.0 0.00 0.23 0.23 78 1014.8
20260506123719 14 35 4.8 19.3 0.00 0.23 0.23 79 1014.8
20260506123219 14 28 4.8 11.3 0.00 0.23 0.23 77 1014.9
20260506122719 15 350 4.8 11.3 0.00 0.23 0.23 81 1015.1
20260506122219 15 292 8.0 12.9 0.00 0.23 0.23 81 1015.0
20260506121719 14 300 4.8 9.7 0.00 0.23 0.23 82 1015.1
20260506121218 14 320 3.2 4.8 0.00 0.23 0.23 79 1015.0
20260506120719 14 347 4.8 14.5 0.00 0.23 0.23 83 1015.1
20260506120219 14 313 0.0 0.0 0.00 0.23 0.23 83 1015.2
20260506115719 14 318 0.0 0.0 0.00 0.23 0.23 83 1015.2